Tracking 19279 objects as of 14-Nov-2018
HD Live streaming from Space Station
objects crossing your sky now

COSMOS 1524

Track COSMOS 1524 now!
10-day predictions
COSMOS 1524 is classified as:


NORAD ID: 14613
Int'l Code: 1984-001C
Perigee: 1,418.6 km
Apogee: 1,468.9 km
Inclination: 74.0 °
Period: 114.6 minutes
Semi major axis: 7814 km
RCS: 0.6947 m2 (medium)
Launch date: January 5, 1984
Source: Commonwealth of Independent States (former USSR) (CIS)
Launch site: PLESETSK MISSILE AND SPACE COMPLEX (PKMTR)
aabbcc
Your satellite tracking list
Your tracking list is empty




NASA's NSSDC Master Catalog

Two Line Element Set (TLE):
1 14613U 84001C   18317.59046542 -.00000017 +00000-0 -43389-5 0  9995
2 14613 074.0073 185.6009 0032191 199.6065 210.9436 12.56698239598984
Source of the keplerian elements: AFSPC